User: anonymous   Login
Location: *
(40.4270°N, 9.4940°E)
Time: 21:46:30
(UTC+02:00)
Language:

Okean 2 - Orbit

View from above orbital plane
View from above orbital plane
View from above satellite
View from above satellite

Ground track
Ground track

The orbit data is extracted from the following two-line orbital elements,

1 20510U 90018A   18145.66601608  .00000300  00000-0  22398-4 0  9999
2 20510  82.5167 202.5464 0010577 264.3853 211.0507 14.99148187532753
Epoch (UTC): 25 May 2018 15:59:03
Eccentricity: 0.0010577
inclination: 82.5167°
perigee height: 562 km
apogee height: 577 km
right ascension of ascending node: 202.5464°
argument of perigee: 264.3853°
revolutions per day: 14.99148187
mean anomaly at epoch: 211.0507°
orbit number at epoch: 53275

The dashed part of the orbit path shows where the satellite is in the earth's shadow,  

DLR